Flag for Canada Weather past 2 weeks in Regina, Saskatchewan, Canada

Now
63 °F

Passing clouds.


Feels Like: 63 °F
Forecast: 57 / 76 °F
Wind: 15 mph from Southeast

Location: Regina Weather Station

Current Time: Jul 24, 2014 at 3:24:19 AM

Latest Report: Jul 24, 2014 at 3:00 AM


Visibility: 15 mi

Pressure: 29.90 "Hg

Humidity: 94%

Dew point: 61 °F

Location of ReginaLocation

Historic Weather in Regina — Graph

°F

Regina temperature yesterday

Maximum temperature yesterday: 81 °F (at 2:00 PM)
Minimum temperature yesterday: 63 °F (at 2:00 AM)
Average temperature yesterday: 72 °F

Past Weeks' High & Low Weather Summary

 TemperatureHumidityPressure
High84 °F (Jul 19, 4:00 PM)100% (Jul 12, 5:00 AM)30.42 "Hg (Jul 12, 5:00 AM)
Low43 °F (Jul 13, 5:00 AM)36% (Jul 15, 3:00 PM)29.52 "Hg (Jul 18, 4:00 AM)
Average65 °F71%29.97 "Hg
* Reported Jul 9 2:00 AM — Jul 24 2:00 AM, Regina, Weather by CustomWeather, © 2014

Note: Actual official high and low records may vary slightly from our data, if they occured in-between our weather recording intervals... More about our weather records

Advertising

Regina weather history for previous 24 hours

 ConditionsComfort  
Time TempWeatherWind HumidityBarometerVisibility
2:00 AM
Jul 24
64 °FPassing clouds.17 mph88%29.92 "Hg15 mi
1:00 AM66 °FPassing clouds.17 mph88%29.97 "Hg15 mi
12:00 AM66 °FPassing clouds.17 mph88%29.99 "Hg15 mi
11:00 PM
Jul 23
68 °FPassing clouds.16 mph83%30.02 "Hg15 mi
10:00 PM70 °FOvercast.14 mph78%30.02 "Hg15 mi
9:00 PM72 °FMostly cloudy.17 mph73%30.05 "Hg15 mi
8:00 PM72 °FPartly sunny.15 mph73%30.05 "Hg15 mi
7:00 PM73 °FScattered showers. Partly sunny.23 mph69%30.08 "Hg15 mi
6:00 PM75 °FBroken clouds.15 mph65%30.11 "Hg15 mi
5:00 PM75 °FBroken clouds.15 mph65%30.14 "Hg15 mi
4:00 PM79 °FPartly sunny.20 mph51%30.13 "Hg15 mi
3:00 PM81 °FOvercast.20 mph48%30.15 "Hg15 mi
2:00 PM81 °FPartly sunny.17 mph45%30.19 "Hg15 mi
1:00 PM79 °FPartly sunny.20 mph45%30.21 "Hg15 mi
12:00 PM77 °FPartly sunny.17 mph54%30.23 "Hg15 mi
11:00 AM75 °FPartly sunny.18 mph57%30.24 "Hg15 mi
10:00 AM72 °FScattered clouds.15 mph69%30.26 "Hg15 mi
9:00 AM70 °FSunny.15 mph69%30.27 "Hg15 mi
8:00 AM64 °FScattered clouds.13 mph78%30.28 "Hg15 mi
7:00 AM63 °FPassing clouds.14 mph77%30.28 "Hg15 mi
4:00 AM63 °FPassing clouds.14 mph68%30.27 "Hg15 mi
3:00 AM63 °FPassing clouds.13 mph73%30.27 "Hg15 mi
Weather by CustomWeather, © 2014

See weather overviewHow to use our weather pages